Other Public Products
Issued by NWS Charleston, SC

Current Version | Previous Version | Graphics & Text | Print | Product List | Glossary On
Versions: 1 2 3 4 5 6 7 8 9 10 11 12 13 14 15 16 17 18 19 20 21 22 23 24 25 26 27 28 29 30 31 32 33 34 35 36 37 38 39 40 41 42 43 44 45 46 47 48 49 50
000
FPUS82 KCHS 190123
OPUCHS

TEST...KCHS/KSAV Gateway Observations...TEST
National Weather Service Charleston SC
900 PM EDT MON SEP 18 2017

NOTE: "fair" indicates few or no clouds below 12,000 feet with no
significant weather and/or obstructions to visibility.

SCZ050-WAZ558-NCZ071-TXZ119-213-PAZ071-DCZ001-FLZ074-172-MI076-
NYZ176-178-MAZ016-IL014-TNZ027-NJZ106-GAZ044-MD014-190200-

...Gateway Observations for Charleston International...

CITY           SKY/WX    TMP DP  RH WIND       PRES   REMARKS
Chas Airport   PTCLDY    74  72  93 S6        29.96R
Seattle        LGT RAIN  54  49  83 SE9       29.73F
Charlotte      MOCLDY    76  67  73 VRB5      30.01R
Dallas DFW     PTCLDY    88  65  46 SE5       29.88S HX  90
Dallas Love    PTCLDY    90  64  42 E7        29.88S HX  91
Philladelphia  MOCLDY    72  65  78 NE9       30.07R
Wash National  PTCLDY    72  68  87 N8        30.05S
Baltimore      MOCLDY    71  68  90 N7        30.05R
Miami          MOCLDY    86  72  62 N3        29.90R HX  92
Detroit        CLOUDY    68  62  81 NE7       30.06R
Newark         CLOUDY    72  65  78 NE7       30.10R
Laguardia      CLOUDY    72  68  87 NE9       30.09S
J F K          CLOUDY    72  67  84 NE12      30.10S
Boston Logan   DRIZZLE   65  64  97 NE9       30.19R FOG
Ft. Lauderdale CLOUDY    81  74  79 NE3       29.89R
Chicago O`Hare MOCLDY    67  56  67 NE9       30.01S
Chicago Midway MOCLDY    69  56  62 E8        30.01S
Houston Bush   LGT RAIN  76  74  93 CALM      29.97R
Houston Hobby  TSTM      76  72  87 SW12      29.95F FOG
Nashville      PTCLDY    79  67  66 N12       30.01S
Atlanta        PTCLDY    78  62  57 NW7       30.03R

$$

GAZ044-118-TXZ119-213-NCZ071-DCZ001-MDZ014-506-PAZ021-071-NJZ106-
NYZ176-178-MAZ106-OHZ011-021-055-MIZ076-KYZ091-ILZ014-INZ047-
MNZ060-ONZ431-190200-

...Gateway Observations for Savannah International...

CITY           SKY/WX    TMP DP  RH WIND       PRES   REMARKS
Savannah Arpt  PTCLDY    79  68  69 CALM      29.97R
Atlanta        PTCLDY    78  62  57 NW7       30.03R
Charlotte      MOCLDY    76  67  73 VRB5      30.01R
Dallas DFW     PTCLDY    88  65  46 SE5       29.88S HX  90
Houston Bush   LGT RAIN  76  74  93 CALM      29.97R
Wash National  PTCLDY    72  68  87 N8        30.05S
Wash Dulles    PTCLDY    70  67  90 NE7       30.06R
Baltimore      MOCLDY    71  68  90 N7        30.05R
Philadelphia   MOCLDY    72  65  78 NE9       30.07R
Newark         CLOUDY    72  65  78 NE7       30.10R
Laguardia      CLOUDY    72  68  87 NE9       30.09S
J F K          CLOUDY    72  67  84 NE12      30.10S
Boston         DRIZZLE   65  64  97 NE9       30.19R FOG
Pittsburg      CLOUDY    74  64  71 CALM      30.05R
Akron          PTCLDY    74  60  61 SE5       30.05R
Cleveland      MOCLDY    74  65  73 NE6       30.06R
Cincinnati     CLOUDY    75  70  84 SE3       30.03R
Columbus       CLOUDY    72  67  83 SE3       30.02S
Detroit        CLOUDY    68  62  81 NE7       30.06R
Chicago O`Hare MOCLDY    67  56  67 NE9       30.01S
Minneapolis    CLOUDY    58  56  93 SE10      29.96S
Indianapolis   CLOUDY    71  67  87 N7        30.00R THUNDER
Toronto Canada MOCLDY    70  64  83 N12       30.04S

$$




USA.gov is the U.S. government's official web portal to all federal, state and local government web resources and services.